Snowfall_Accumulation
0.4 2.1 3.3 1.3 1.0 1.0 1.3 1.6 1.3 0.6 0.2 0.4 0.4 0.4 0.0 0.0 0.0 0.0 0.0 0.0 0.0 0.0 0.0 0.0 0.0 0.0 0.0 0.0 0.0 0.0 0.0 0.0 0.0 0.0 0.0 0.0 0.0 0.0 0.0 0.0 0.0 0.0 0.0 0.0
2.4 3.1 0.8 0.3 0.4 1.0 2.0 2.6 1.7 0.6 0.3 0.5 0.6 0.3 0.1 0.0 0.0 0.1 0.0 0.0 0.0 0.0 0.0 0.0 0.0 0.0 0.0 0.0 0.0 0.0 0.0 0.0 0.0 0.0 0.0 0.0 0.0 0.0 0.0 0.0 0.0 0.0 0.0 0.0
3.4 1.3 0.1 0.4 1.1 1.7 2.0 2.2 1.4 1.2 0.5 0.6 1.1 1.0 0.2 0.1 0.1 0.1 0.0 0.0 0.0 0.0 0.0 0.0 0.0 0.0 0.0 0.0 0.0 0.0 0.0 0.0 0.0 0.0 0.0 0.0 0.0 0.0 0.0 0.0 0.0 0.0 0.0 0.0
1.8 0.3 0.4 0.8 1.0 1.6 2.4 0.7 0.8 1.2 2.1 2.5 1.9 3.1 0.4 0.2 0.1 0.1 0.1 0.1 0.0 0.0 0.0 0.0 0.0 0.0 0.0 0.0 0.0 0.0 0.0 0.0 0.0 0.0 0.0 0.0 0.0 0.0 0.0 0.0 0.0 0.0 0.0 0.0
2.4 0.5 0.8 1.9 0.8 1.0 1.4 0.3 0.7 1.3 2.4 3.2 1.5 3.3 0.8 0.2 0.6 0.9 0.2 0.2 0.2 0.1 0.0 0.0 0.0 0.0 0.0 0.0 0.0 0.0 0.0 0.0 0.0 0.0 0.0 0.0 0.0 0.0 0.0 0.0 0.0 0.0 0.0 0.0
1.4 0.2 0.4 1.0 0.2 0.4 0.8 1.0 1.0 1.6 3.5 8.5 2.1 2.5 1.2 0.8 1.2 0.9 0.3 0.2 0.2 0.2 0.1 0.0 0.0 0.0 0.0 0.0 0.0 0.0 0.0 0.0 0.0 0.0 0.0 0.0 0.0 0.0 0.0 0.0 0.0 0.0 0.0 0.0
3.5 1.3 0.5 0.5 1.3 0.8 1.9 5.6 14.0 15.1 14.6 7.2 0.5 1.3 1.2 0.9 0.6 0.7 0.4 0.2 0.2 0.2 0.2 0.1 0.0 0.0 0.0 0.0 0.0 0.0 0.0 0.0 0.0 0.0 0.0 0.0 0.0 0.0 0.0 0.0 0.0 0.1 0.1 0.0
6.6 5.3 1.1 0.6 0.8 2.3 2.1 4.6 10.2 11.0 7.6 2.4 0.6 1.1 0.9 0.5 0.3 0.2 0.2 0.1 0.1 0.1 0.2 0.1 0.1 0.0 0.1 0.0 0.0 0.0 0.0 0.0 0.0 0.0 0.0 0.0 0.0 0.0 0.0 0.0 0.1 0.1 0.1 0.0
7.5 5.0 0.9 0.5 0.3 1.2 3.2 3.9 2.9 6.3 5.2 3.0 1.3 0.8 0.8 0.4 0.3 0.2 0.4 0.4 0.3 0.3 0.1 0.2 0.0 0.0 0.1 0.1 0.0 0.0 0.0 0.0 0.0 0.0 0.0 0.0 0.0 0.0 0.0 0.0 0.1 0.1 0.0 0.0
7.7 6.3 1.7 0.5 0.7 1.0 1.9 2.7 5.0 9.9 8.9 4.6 1.9 1.3 1.5 1.1 0.7 0.4 0.4 0.5 0.4 0.4 0.2 0.1 0.0 0.0 0.1 0.1 0.0 0.0 0.0 0.0 0.0 0.0 0.0 0.0 0.0 0.0 0.0 0.0 0.1 0.1 0.0 0.0
6.0 7.7 4.6 2.1 3.0 3.2 3.4 4.5 7.3 8.7 7.1 6.1 3.6 2.3 1.9 1.5 1.0 0.7 0.5 0.6 0.5 0.3 0.2 0.2 0.1 0.0 0.0 0.1 0.1 0.1 0.0 0.1 0.0 0.0 0.0 0.0 0.0 0.0 0.0 0.1 0.1 0.1 0.1 0.1
5.8 8.6 7.4 3.3 1.6 1.8 3.2 5.0 6.6 10.7 8.5 4.6 4.1 2.9 1.3 1.1 0.8 0.6 0.6 0.6 0.6 0.4 0.3 0.3 0.2 0.1 0.0 0.1 0.1 0.1 0.1 0.1 0.0 0.0 0.0 0.0 0.1 0.0 0.1 0.1 0.1 0.2 0.1 0.2
8.5 11.8 11.8 6.2 3.7 2.9 4.3 4.8 5.5 6.6 7.3 5.7 4.8 3.0 1.0 0.7 0.6 0.5 0.4 0.4 0.5 0.5 0.4 0.4 0.3 0.2 0.1 0.1 0.1 0.1 0.1 0.1 0.0 0.0 0.0 0.0 0.1 0.1 0.1 0.2 0.2 0.2 0.3 0.2
8.7 13.4 10.4 9.2 7.1 6.9 6.3 4.6 4.4 6.6 9.1 6.0 3.6 2.5 1.6 1.2 1.0 0.6 0.5 0.4 0.5 0.6 0.5 0.4 0.3 0.3 0.2 0.2 0.1 0.1 0.2 0.1 0.2 0.1 0.1 0.2 0.4 0.3 0.5 0.3 0.5 1.0 1.5 1.6
10.1 12.1 5.3 3.1 3.1 3.5 4.2 3.4 3.5 5.0 5.1 4.8 2.6 2.1 2.3 1.5 1.1 1.0 0.7 0.5 0.5 0.6 0.6 0.7 0.5 0.4 0.2 0.2 0.1 0.2 0.2 0.2 0.3 0.3 0.2 0.4 0.6 1.1 0.8 0.5 0.6 1.1 1.7 2.5
10.6 11.2 5.3 2.7 1.7 2.4 3.0 1.9 1.7 2.2 2.3 2.6 2.3 2.6 1.6 0.8 0.6 0.7 0.8 0.7 0.8 0.9 0.9 0.8 0.8 0.8 0.6 0.4 0.3 0.2 0.2 0.4 0.4 0.5 0.4 0.7 1.1 1.8 1.7 0.7 0.7 1.0 1.7 2.2
9.8 9.8 8.5 5.0 1.9 3.4 4.8 2.2 1.8 2.0 1.9 2.3 2.9 2.8 1.8 1.3 0.9 0.8 0.8 1.0 0.8 0.9 1.0 0.9 1.1 1.2 1.0 0.6 0.5 0.5 0.4 0.4 0.4 0.6 0.8 1.1 1.4 2.0 2.0 1.8 1.6 2.1 2.6 2.6
7.9 9.2 11.5 8.1 5.8 8.5 3.1 1.5 1.4 1.7 2.2 2.1 2.4 2.3 1.7 1.5 1.4 0.9 0.8 1.0 0.9 1.0 1.0 1.0 1.2 1.2 1.0 0.9 0.6 0.4 0.4 0.4 0.4 0.6 1.0 1.2 1.5 2.0 1.8 1.4 1.9 2.2 1.8 1.7
3.7 8.4 13.3 11.6 8.7 4.5 2.0 1.6 2.0 2.6 3.3 2.4 2.1 2.2 1.5 1.3 1.4 1.5 1.1 0.9 1.0 0.9 0.9 0.9 0.9 1.0 0.6 0.6 0.7 0.7 0.3 0.3 0.4 0.6 0.9 1.3 1.5 2.0 1.7 1.5 1.3 1.6 1.4 1.4
3.4 7.1 13.6 12.6 9.7 4.9 2.4 1.3 1.2 1.9 4.2 2.2 1.8 2.0 1.6 1.5 2.6 2.4 1.8 1.1 0.9 0.6 0.6 0.7 0.6 0.5 0.3 0.3 0.3 0.3 0.4 0.4 0.6 0.7 0.9 0.7 1.0 1.5 1.1 1.0 0.7 0.5 0.6 1.5
7.1 10.9 13.0 10.4 8.0 3.4 2.0 1.4 1.0 4.3 5.8 2.2 1.6 1.7 1.6 2.0 2.9 2.2 1.6 1.2 0.9 0.9 0.6 0.5 0.4 0.4 0.3 0.2 0.2 0.3 0.2 0.4 0.4 0.5 0.7 0.5 0.4 0.5 0.5 0.8 0.6 0.6 0.9 1.0
5.0 7.4 8.1 7.6 8.4 4.4 1.9 2.2 4.0 4.8 1.9 1.6 1.6 1.3 1.4 1.3 1.1 0.9 1.1 1.2 1.0 1.0 0.6 0.5 0.5 0.5 0.4 0.2 0.3 0.2 0.2 0.3 0.3 0.9 1.1 0.7 0.5 0.4 0.5 1.1 0.9 0.8 1.1 0.9
3.6 4.7 5.1 5.2 4.3 2.8 2.0 2.3 2.2 1.5 1.5 1.4 1.5 1.4 1.4 1.3 1.1 0.9 0.9 0.9 0.9 0.8 0.5 0.4 0.5 0.6 0.2 0.2 0.3 0.4 0.3 0.4 0.8 1.1 1.0 0.7 0.4 0.4 0.6 1.0 1.2 1.0 1.3 1.8
2.7 2.3 3.1 3.0 2.2 1.7 1.4 1.5 1.5 1.2 1.1 1.1 1.2 1.5 1.4 1.3 1.0 0.8 0.7 0.8 0.9 0.9 0.4 0.4 0.5 0.7 0.6 0.3 0.2 0.3 0.4 0.6 1.1 1.2 0.8 0.6 0.6 0.6 0.6 0.8 1.3 1.7 2.1 2.9
2.3 2.2 2.8 2.5 1.7 1.3 1.0 1.1 1.1 1.2 0.9 0.8 0.9 1.2 1.2 1.2 1.0 0.9 0.9 1.0 1.0 0.9 0.4 0.4 0.5 0.5 0.5 0.3 0.2 0.2 0.6 0.8 1.1 1.1 1.1 0.7 0.7 0.7 0.8 0.9 1.2 1.9 2.3 4.0
1.6 2.1 2.5 2.2 1.2 1.3 1.1 0.7 0.7 1.0 1.0 0.8 1.1 1.2 0.9 1.0 1.2 1.1 0.9 0.8 0.9 0.8 0.8 0.5 0.5 0.5 0.3 0.3 0.3 0.4 0.6 1.0 1.3 1.5 1.2 0.9 1.0 0.9 0.9 1.1 1.2 1.0 1.7 2.0